Stations météo

Publicité
Gourette, France (7775): Température de l'air & dewpoint: 12.06.2019 15:00:00 - 18.06.2019 15:00:00 (CEST)Gourette, France (7775): Vitesse du vent & gusts: 12.06.2019 15:00:00 - 18.06.2019 15:00:00 (CEST)Gourette, France (7775): Direction du vent: 12.06.2019 15:00:00 - 18.06.2019 15:00:00 (CEST)Gourette, France (7775): reduced air pressure: 12.06.2019 15:00:00 - 18.06.2019 15:00:00 (CEST)Gourette, France (7775): visibility: 12.06.2019 15:00:00 - 18.06.2019 15:00:00 (CEST)Gourette, France (7775): Quantités de précipitations: 12.06.2019 15:00:00 - 18.06.2019 15:00:00 (CEST)
Date & Time tt [°C] td [°C] ff [km/h] ff [knt] fx [km/h] fx [knt] dd ppp [hPa] vv [km] rr [mm]
18.06.2019 15:00:00 28,8 14,2 9 5 23 13 E 1014,9 - 0,0
18.06.2019 14:00:00 30,0 12,0 15 8 26 14 NNE 1015,1 - 0,0
18.06.2019 13:00:00 29,0 13,6 17 9 25 14 NE 1015,4 - 0,0
18.06.2019 12:00:00 29,2 14,2 15 8 23 12 NE 1015,3 - 0,0
18.06.2019 11:00:00 28,5 15,4 18 10 27 15 NE 1015,1 - 0,0
18.06.2019 10:00:00 28,2 12,9 16 8 24 13 NNE 1014,9 - 0,0
18.06.2019 09:00:00 26,0 13,8 10 5 18 10 NNE 1015,0 - 0,0
18.06.2019 08:00:00 22,7 13,5 5 3 10 5 S 1014,6 - 0,0
18.06.2019 07:00:00 21,7 12,0 2 1 6 4 SSE 1014,2 - 0,0
18.06.2019 06:00:00 22,0 11,4 0 0 10 5 N 1013,8 - 0,0
18.06.2019 05:00:00 20,0 12,7 6 3 14 8 SW 1013,8 - 0,0
18.06.2019 04:00:00 19,3 14,5 11 6 25 14 WNW 1013,9 - 0,0
18.06.2019 03:00:00 20,7 16,1 18 10 24 13 NNW 1014,2 - 0,0
18.06.2019 02:00:00 19,8 17,0 16 8 24 13 NNW 1015,1 - 0,0
18.06.2019 01:00:00 23,5 12,2 8 4 19 10 WNW 1014,2 - 0,0
18.06.2019 00:00:00 20,3 14,2 8 5 12 7 SSW 1014,6 - 0,0
17.06.2019 23:00:00 21,2 14,4 5 3 8 5 ENE 1014,4 - 0,0
17.06.2019 22:00:00 21,1 14,0 5 3 7 4 SSW 1013,9 - 0,0
17.06.2019 21:00:00 21,4 14,3 5 3 14 8 NNW 1013,7 - 0,0
17.06.2019 20:00:00 23,6 13,5 11 6 19 11 N 1013,6 - 0,0
17.06.2019 19:00:00 25,8 14,0 15 8 21 11 NNE 1013,6 - 0,0
17.06.2019 18:00:00 26,8 14,9 9 5 20 11 NE 1013,4 - 0,0
17.06.2019 17:00:00 26,3 16,2 9 5 20 11 ENE 1014,0 - 0,0
17.06.2019 16:00:00 25,1 17,0 11 6 26 14 ENE 1014,5 - 0,0
17.06.2019 15:00:00 26,7 18,0 16 9 26 14 NE 1014,5 - 0,0
17.06.2019 14:00:00 25,8 19,0 16 9 24 13 ENE 1014,8 - 0,0
17.06.2019 13:00:00 26,5 18,9 13 7 30 16 NNE 1014,9 - 0,0
17.06.2019 12:00:00 25,7 18,9 16 9 26 14 NE 1015,5 - 0,0
17.06.2019 11:00:00 25,0 18,4 11 6 19 10 E 1015,5 - 0,0
17.06.2019 10:00:00 24,6 18,1 14 8 23 12 NE 1015,6 - 0,0
17.06.2019 09:00:00 22,8 18,3 10 5 16 9 NNE 1015,6 - 0,0
17.06.2019 08:00:00 20,0 18,0 7 4 11 6 N 1015,4 - 0,0
17.06.2019 07:00:00 18,0 17,0 8 5 14 7 N 1015,2 - 0,0
17.06.2019 06:00:00 17,8 16,7 9 5 12 7 N 1014,6 - 0,0
17.06.2019 05:00:00 17,7 16,7 6 3 10 5 SW 1014,5 - 0,0
17.06.2019 04:00:00 18,1 16,8 6 4 12 7 W 1014,9 - 0,0
17.06.2019 03:00:00 19,3 17,4 7 4 13 7 W 1015,2 - 0,0
17.06.2019 02:00:00 19,5 18,2 7 4 14 7 NW 1015,6 - 0,0
17.06.2019 01:00:00 19,9 18,4 10 6 16 9 N 1015,6 - 0,0
17.06.2019 00:00:00 19,4 18,2 11 6 15 8 NNW 1015,2 - 0,0
16.06.2019 23:00:00 19,5 18,2 9 5 12 6 N 1015,0 - 0,0
16.06.2019 22:00:00 19,8 18,1 6 3 7 4 N 1015,0 - 0,0
16.06.2019 21:00:00 20,7 18,1 5 3 9 5 NNE 1014,6 - 0,0
16.06.2019 20:00:00 22,4 18,6 6 4 10 5 NE 1014,8 - 0,0
16.06.2019 19:00:00 23,3 18,6 6 3 13 7 ENE 1015,1 - 0,0
16.06.2019 18:00:00 23,8 18,7 9 5 20 11 ENE 1015,4 - 0,0
16.06.2019 17:00:00 24,7 18,6 11 6 18 10 ENE 1015,8 - 0,0
16.06.2019 16:00:00 24,7 18,6 9 5 22 12 ESE 1015,8 - 0,0
16.06.2019 15:00:00 24,2 18,4 13 7 23 12 ENE 1015,9 - 0,0
16.06.2019 14:00:00 24,4 18,6 14 8 26 14 NE 1016,2 - 0,0
16.06.2019 13:00:00 24,4 18,8 16 9 26 14 ENE 1016,6 - 0,0
16.06.2019 12:00:00 24,1 18,5 12 6 26 14 ENE 1016,7 - 0,0
16.06.2019 11:00:00 23,8 18,7 13 7 23 12 E 1016,6 - 0,0
16.06.2019 10:00:00 24,2 18,8 12 7 22 12 E 1016,4 - 0,0
16.06.2019 09:00:00 23,8 18,7 11 6 18 10 ENE 1016,3 - 0,0
16.06.2019 08:00:00 21,4 18,4 5 3 8 4 NNE 1016,1 - 0,0
16.06.2019 07:00:00 19,7 17,8 4 2 6 3 WSW 1015,8 - 0,0
16.06.2019 06:00:00 19,1 17,4 3 1 7 4 E 1015,6 - 0,0
16.06.2019 05:00:00 19,4 17,7 5 3 5 3 S 1015,6 8 0,0
16.06.2019 04:00:00 19,8 17,4 3 1 7 4 W 1015,6 - 0,0
16.06.2019 03:00:00 19,8 17,8 2 1 7 4 W 1016,0 - 0,0
16.06.2019 02:00:00 19,6 17,7 4 2 8 4 SW 1016,4 - 0,0
16.06.2019 01:00:00 20,1 17,7 6 3 6 4 SW 1016,5 - 0,0
16.06.2019 00:00:00 20,8 17,8 6 3 13 7 NNW 1016,6 - 0,0
15.06.2019 23:00:00 20,8 17,8 3 1 7 4 NW 1016,4 - 0,0
15.06.2019 22:00:00 20,7 17,9 3 2 6 4 N 1016,1 - 0,0
15.06.2019 21:00:00 21,6 18,2 5 3 16 9 NNE 1015,9 - 0,0
15.06.2019 20:00:00 22,9 18,2 11 6 20 11 NNE 1015,8 6 0,0
15.06.2019 19:00:00 24,1 17,6 14 8 23 12 NE 1015,4 - 0,0
15.06.2019 18:00:00 24,6 18,1 12 6 19 10 ENE 1015,6 - 0,0
15.06.2019 17:00:00 24,3 18,0 13 7 25 13 E 1016,1 - 0,0
15.06.2019 16:00:00 25,1 19,0 16 9 25 14 ENE 1016,6 - 0,0
15.06.2019 15:00:00 25,1 19,7 15 8 24 13 ENE 1016,7 - 0,0
15.06.2019 14:00:00 24,7 20,0 13 7 22 12 E 1016,4 6 0,0
15.06.2019 13:00:00 25,5 20,5 10 5 22 12 ESE 1016,3 - 0,0
15.06.2019 12:00:00 26,5 20,8 9 5 20 11 ESE 1016,1 - 0,0
15.06.2019 11:00:00 24,6 20,3 8 5 23 13 E 1016,4 6 0,0
15.06.2019 10:00:00 25,4 20,0 11 6 17 9 E 1016,1 - 0,0
15.06.2019 09:00:00 25,9 18,1 6 3 14 8 E 1015,8 - 0,0
15.06.2019 08:00:00 23,5 17,7 6 3 13 7 NNW 1015,3 - 0,0
15.06.2019 07:00:00 21,4 18,0 9 5 20 11 NW 1015,3 - 0,0
15.06.2019 06:00:00 20,7 18,1 14 8 19 11 NNW 1014,7 - 0,0
15.06.2019 05:00:00 21,1 18,7 17 9 44 24 N 1014,3 6 0,0
15.06.2019 04:00:00 20,7 19,0 28 15 43 23 N 1013,8 - 0,0
15.06.2019 03:00:00 21,0 18,4 22 12 35 19 N 1013,3 - 0,0
15.06.2019 02:00:00 20,3 18,8 19 11 33 18 N 1013,4 - 0,0
15.06.2019 01:00:00 21,1 20,3 21 11 30 16 N 1013,8 - 0,0
15.06.2019 00:00:00 21,7 20,5 14 7 21 11 N 1014,1 - 0,0
14.06.2019 23:00:00 21,8 20,4 6 3 10 5 N 1013,8 - 0,0
14.06.2019 22:00:00 21,8 20,6 2 1 10 5 NNE 1014,2 - 0,0
14.06.2019 21:00:00 22,2 20,5 3 2 24 13 ESE 1013,2 - 0,0
14.06.2019 20:00:00 22,8 20,3 11 6 31 17 SSE 1013,1 - 0,0
14.06.2019 19:00:00 22,7 20,4 18 10 31 17 SSE 1013,1 - 0,0
14.06.2019 18:00:00 24,5 19,8 23 12 41 22 S 1012,6 - 0,0
14.06.2019 17:00:00 24,1 20,0 27 15 54 29 S 1013,5 - 0,0
14.06.2019 16:00:00 25,9 18,6 21 11 33 18 S 1012,8 - 0,0
14.06.2019 15:00:00 25,8 14,9 14 8 26 14 SSE 1014,8 - 0,0
14.06.2019 14:00:00 26,5 18,6 11 6 25 13 SE 1014,7 - 0,0
14.06.2019 13:00:00 27,1 15,5 9 5 25 14 S 1014,9 - 0,0
14.06.2019 12:00:00 27,4 12,2 19 10 28 15 SE 1014,9 - 0,0
14.06.2019 11:00:00 27,2 12,8 15 8 29 15 S 1015,4 25 0,0
14.06.2019 10:00:00 27,1 15,1 14 8 25 13 S 1015,0 - 0,0
14.06.2019 09:00:00 25,4 14,8 15 8 22 12 S 1015,2 - 0,0
14.06.2019 08:00:00 21,0 12,9 13 7 21 11 SSW 1015,0 - 0,0
14.06.2019 07:00:00 19,8 12,3 16 9 28 15 SSW 1015,1 - 0,0
14.06.2019 06:00:00 17,4 10,5 21 11 25 13 SW 1015,1 - 0,0
14.06.2019 05:00:00 16,6 12,1 17 9 23 12 SSW 1015,0 - 0,0
14.06.2019 04:00:00 18,6 15,1 14 7 23 12 S 1015,3 - 0,0
14.06.2019 03:00:00 21,5 13,1 8 4 27 14 W 1015,1 - 0,0
14.06.2019 02:00:00 20,4 12,6 20 11 29 15 SSW 1015,1 - 0,0
14.06.2019 01:00:00 17,8 15,1 16 9 23 12 SSW 1015,8 - 0,0
14.06.2019 00:00:00 18,4 15,3 13 7 17 9 SW 1016,5 - 0,0
13.06.2019 23:00:00 18,7 15,0 14 8 16 8 SW 1016,7 - 0,0
13.06.2019 22:00:00 19,6 15,3 5 3 7 4 SW 1016,8 - 0,0
13.06.2019 21:00:00 20,8 15,1 3 2 9 5 S 1016,2 - 0,0
13.06.2019 20:00:00 22,5 15,3 8 5 16 9 NE 1016,1 - 0,0
13.06.2019 19:00:00 23,6 14,9 9 5 17 9 NE 1016,0 - 0,0
13.06.2019 18:00:00 24,8 15,7 9 5 18 10 NE 1015,9 - 0,0
13.06.2019 17:00:00 24,5 15,7 14 7 24 13 ENE 1016,2 20 0,0
13.06.2019 16:00:00 23,8 15,8 15 8 25 13 ENE 1016,4 - 0,0
13.06.2019 15:00:00 24,7 16,1 16 9 27 15 NE 1016,4 - 0,0
13.06.2019 14:00:00 24,4 16,1 18 10 28 15 ENE 1016,5 20 0,0
13.06.2019 13:00:00 24,4 15,9 16 9 27 14 ENE 1016,6 - 0,0
13.06.2019 12:00:00 23,8 15,6 14 8 23 13 ENE 1016,5 - 0,0
13.06.2019 11:00:00 23,3 15,6 15 8 23 12 E 1016,8 - 0,0
13.06.2019 10:00:00 24,3 16,3 10 5 19 11 ESE 1016,5 - 0,0
13.06.2019 09:00:00 21,5 14,9 10 5 16 9 E 1016,4 - 0,0
13.06.2019 08:00:00 20,7 15,7 10 5 14 8 E 1015,9 15 0,0
13.06.2019 07:00:00 19,7 16,5 0 0 9 5 N 1015,6 - 0,0
13.06.2019 06:00:00 19,5 15,6 4 2 14 8 N 1015,2 - 0,0
13.06.2019 05:00:00 19,1 15,8 9 5 12 7 NNE 1014,9 - 0,0
13.06.2019 04:00:00 19,1 15,8 6 3 10 6 NNW 1014,7 - 0,0
13.06.2019 03:00:00 18,8 15,8 5 3 8 4 N 1014,6 - 0,0
13.06.2019 02:00:00 19,2 15,7 4 2 6 3 N 1014,8 - 0,0
13.06.2019 01:00:00 19,1 15,2 4 2 8 4 SW 1014,9 - 0,0
13.06.2019 00:00:00 18,5 15,4 8 4 17 9 S 1014,7 - 0,0
12.06.2019 23:00:00 19,1 16,1 16 8 21 11 SSW 1014,3 - 0,0
12.06.2019 22:00:00 19,4 16,6 14 8 17 9 S 1013,8 - 0,0
12.06.2019 21:00:00 21,0 17,6 8 4 11 6 S 1013,3 - 0,0
12.06.2019 20:00:00 22,6 17,7 3 2 10 6 SE 1012,9 13 0,0
12.06.2019 19:00:00 23,7 16,7 6 4 16 8 E 1012,8 - 0,0
12.06.2019 18:00:00 24,3 17,1 9 5 19 10 ENE 1012,7 - 0,0
12.06.2019 17:00:00 24,8 17,5 9 5 22 12 E 1012,9 - 0,0
12.06.2019 16:00:00 24,7 17,4 13 7 23 12 E 1012,7 - 0,0
12.06.2019 15:00:00 25,8 17,7 11 6 25 13 E 1012,7 - 0,0

tt = Température de l'air
td = dewpoint
ff = Vitesse du vent
fx = gusts
dd = Direction du vent
ppp = reduced air pressure
vv = visibility
rr = Quantités de précipitations

stations d'obs. à proximité